SL-8 DEB, 2647

Orbit data source: Space-Track

SL-8 DEB, 2647 is space debris in LEO originally from a launch on Sat, 18 Sep 1965 UTC launched from the Tyuratam Missile And Space Complex (TTMTR). Debris objects in space refer to the collection of defunct objects orbiting the Earth. Examples of debris include non-operational satellites, rocket bodies, and fragments generated from explosions, collisions, or faulty payload assembly.

Loading next visibility...
Identifier
2647, 1965-073L
Orbit
LEO
Last TLE update
1 day ago
Origin
Manufacturer
Unknown
Mission
Spacecraft
Bus & Motor
Unknown
Mass
Unknown
Launch date (UTC)
1965-09-18 (60 years ago)
Launch vehicle
Unknown
Launch site
Tyuratam Missile And Space Complex (TTMTR)
Object type
Payload
Rocket body
Debris
Shape & HBR
Unknown
Radar Cross Section
Small (<0.1 m²)

Expand to show TLE details & history

TLE from 1 day ago
0 SL-8 DEB
1 02647U 65073L   25185.72441146 -.00000155  00000-0 -41673-3 0  9997
2 02647  56.0668  35.7061 0186133 324.1766 108.4704 12.43643351 73405
Epoch: 2025-07-04T17:23Z
TLE epoch observation values (Epoch: 2025-07-04T17:23:09.15Z)
Latitude
53.26841°
Longitude
-84.2584°
Altitude
1,547.016 km
Speed
7.077 km/s
True Right ascension
06h 38m 00s
True Declination
53° 07' 12"
Sunlit
Object was in daylight at epoch
Visualization orbit readout
Latitude
4.77364°
Longitude
-148.02594°
Altitude
1,378.531 km
Speed
7.222 km/s
Apparent Right ascension
00h 42m 15s
Apparent Declination
-17° 52' 53"
Sunlit
Object is in daylight
Visualization observer readout
Local Sidereal Time
09:53:39
Azimuth
288.784° WNW
Elevation
-47.576°
Doppler factor
1
Orbital elements
Apogee altitude
1,637.49 km
Perigee altitude
1,344.548 km
Semi-major axis
7,869.156 km
Eccentricity
0.01861
Inclination
56.0668°
RAAN
35.7061°
Arg. of periapsis
324.1766°
True anomaly
Unknown
Mean anomaly
108.4704°
Eccentric anomaly
Unknown
Mean motion
3.10922 °/min
Orbital period
115.78 mins
BSTAR
-0.00041673
Loading maneuver chart data...
Loading SW <> Apogee altitude chart data...
Loading historical data...
Loading historical data...
Loading historical data...
Loading historical data...
Loading historical data...
Loading historical data...
Loading historical data...

SL-8 DEB Visibility forecast

Observer location: undefined°, undefined°

Span
Click to sort rows by Start time (UTC) header in descending order
Start Az.
Max El. time (UTC)
Max El. Az.
Max El.
End time (UTC)
End Az.
18 mins2025-07-05 22:24:32.614Z318.261° NNW2025-07-05 22:33:32.614Z34.784° NE36.983°2025-07-05 22:42:32.614Z103.828° ESE
17 mins2025-07-06 00:26:32.614Z308.899° NW2025-07-06 00:34:32.614Z243.109° WSW41.977°2025-07-06 00:43:32.614Z155.033° SSE
7 mins2025-07-06 02:31:32.614Z268.618° W2025-07-06 02:34:32.614Z248.961° W14.172°2025-07-06 02:38:32.614Z223.505° SW
15 mins2025-07-06 15:24:32.614Z198.65° SSW2025-07-06 15:31:32.614Z127.312° SE39.815°2025-07-06 15:39:32.614Z52.746° ENE
16 mins2025-07-06 17:25:32.614Z256.928° W2025-07-06 17:32:32.614Z322.411° NNW37.52°2025-07-06 17:41:32.614Z41.89° NE
14 mins2025-07-06 19:29:32.614Z301.615° NW2025-07-06 19:36:32.614Z358.754° N26.388°2025-07-06 19:43:32.614Z50.405° ENE
16 mins2025-07-06 21:32:32.614Z320.163° NNW2025-07-06 21:40:32.614Z29.07° NE32.062°2025-07-06 21:48:32.614Z88.102° E
|